THORAD DELTA 1 DEB, 8170

Orbit data source: Space-Track

THORAD DELTA 1 DEB, 8170 is space debris in SSO originally from a launch on Fri, 15 Nov 1974 UTC launched from the Air Force Western Test Range (AFWTR). Debris objects in space refer to the collection of defunct objects orbiting the Earth. Examples of debris include non-operational satellites, rocket bodies, and fragments generated from explosions, collisions, or faulty payload assembly.

Loading next visibility...
Identifier
8170, 1974-089AL
Orbit
SSO
Country
Flag of USUS
Related business
Manufacturer
Unknown
Mission
Spacecraft
Bus & Motor
Unknown
Mass
Unknown
Launch date (UTC)
1974-11-15 (51 years ago)
Launch vehicle
Unknown
Launch site
Air Force Western Test Range (AFWTR)
Object type
Payload
Rocket body
Debris
Shape & HBR
Unknown shape, 0.1 m
Radar Cross Section
Small (<0.1 m²)

Expand to show TLE details & history
Last TLE update: 5 hours ago

TLE from 5 hours ago
0 THORAD DELTA 1 DEB
1 08170U 74089AL  25289.65082204  .00028286  00000-0  14931-1 0  9992
2 08170 101.5956 247.3459 0067745 318.4700 222.8415 14.12579729455466
Epoch: 2025-10-16T15:37Z
TLE epoch observation values (Epoch: 2025-10-16T15:37:11.024Z)
Latitude
-0.88965°
Longitude
167.46087°
Altitude
889.541 km
Speed
7.389 km/s
True Right ascension
04h 28m 39s
True Declination
0° 53' 04"
Sunlit
Object was in full shadow at epoch
Visualization orbit readout
Latitude
Unknown
Longitude
Unknown
Altitude
Unknown
Speed
Unknown
Apparent Right ascension
Unknown
Apparent Declination
Unknown
Sunlit
N/A
Visualization observer readout
Local Sidereal Time
15:08:01
Azimuth
Unknown
Elevation
Unknown
Doppler factor
Unknown
Orbital elements
Apogee altitude
896.838 km
Perigee altitude
798.933 km
Semi-major axis
7,226.022 km
Eccentricity
0.00677
Inclination
101.5956°
RAAN
247.3459°
Arg. of periapsis
318.47°
True anomaly
222.3169°
Mean anomaly
222.8415°
Eccentric anomaly
222.57888°
Mean motion
3.53341 °/min
Orbital period
101.88 mins
BSTAR
0.014931
Loading maneuver chart data...
Computing Atmospheric mass density...

Documentation

Showing up to 5 results
|